TimeHST,TemperatureF,Dew PointF,Humidity,Sea Level PressureIn,VisibilityMPH,Wind Direction,Wind SpeedMPH,Gust SpeedMPH,PrecipitationIn,Events,Conditions,WindDirDegrees,DateUTC
12:53 AM,70.0,66.0,87,30.00,10.0,North,13.8,-,0.00,,Mostly Cloudy,350,2013-12-29 10:53:00
1:20 AM,69.8,66.2,88,30.01,10.0,North,15.0,-,0.00,Rain,Light Rain,360,2013-12-29 11:20:00
1:34 AM,69.8,66.2,88,30.00,10.0,North,10.4,-,0.01,,Mostly Cloudy,10,2013-12-29 11:34:00
1:53 AM,68.0,64.9,90,29.99,10.0,North,15.0,-,0.01,,Partly Cloudy,10,2013-12-29 11:53:00
2:03 AM,69.8,64.4,83,30.00,10.0,North,13.8,-,N/A,,Scattered Clouds,360,2013-12-29 12:03:00
2:10 AM,69.8,64.4,83,29.99,10.0,North,13.8,-,N/A,,Mostly Cloudy,10,2013-12-29 12:10:00
2:39 AM,69.8,64.4,83,29.99,10.0,North,11.5,-,N/A,,Mostly Cloudy,10,2013-12-29 12:39:00
2:53 AM,69.1,64.9,87,29.98,10.0,North,13.8,-,N/A,,Scattered Clouds,360,2013-12-29 12:53:00
3:53 AM,68.0,63.0,84,29.97,10.0,North,9.2,-,N/A,,Clear,360,2013-12-29 13:53:00
4:53 AM,66.9,62.1,84,29.97,10.0,North,9.2,-,N/A,,Clear,360,2013-12-29 14:53:00
5:53 AM,68.0,63.0,84,29.99,10.0,North,9.2,-,N/A,,Partly Cloudy,10,2013-12-29 15:53:00
6:53 AM,66.9,63.0,87,30.00,10.0,NNW,6.9,-,N/A,,Clear,330,2013-12-29 16:53:00
7:53 AM,69.1,63.0,81,30.02,10.0,NNW,11.5,-,N/A,,Partly Cloudy,330,2013-12-29 17:53:00
8:53 AM,71.1,63.0,75,30.05,10.0,North,18.4,-,N/A,,Mostly Cloudy,10,2013-12-29 18:53:00
9:53 AM,73.0,62.1,68,30.06,10.0,NNE,18.4,-,0.00,,Overcast,20,2013-12-29 19:53:00
10:53 AM,73.0,61.0,66,30.04,10.0,North,19.6,-,0.00,,Overcast,10,2013-12-29 20:53:00
11:53 AM,77.0,62.1,60,30.02,10.0,NNE,17.3,-,N/A,,Scattered Clouds,20,2013-12-29 21:53:00
12:53 PM,77.0,61.0,58,30.00,10.0,NNE,15.0,-,N/A,,Partly Cloudy,20,2013-12-29 22:53:00
1:53 PM,77.0,61.0,58,29.97,10.0,NNE,18.4,-,N/A,,Partly Cloudy,20,2013-12-29 23:53:00
2:53 PM,75.9,60.1,58,29.96,10.0,North,17.3,-,N/A,,Scattered Clouds,10,2013-12-30 00:53:00
3:53 PM,75.0,59.0,57,29.96,10.0,NNE,18.4,-,N/A,,Partly Cloudy,20,2013-12-30 01:53:00
4:53 PM,73.9,59.0,59,29.97,10.0,North,15.0,-,N/A,,Partly Cloudy,10,2013-12-30 02:53:00
5:53 PM,71.1,57.9,63,29.98,10.0,North,6.9,-,N/A,,Scattered Clouds,10,2013-12-30 03:53:00
6:53 PM,72.0,57.9,61,29.99,10.0,North,13.8,23.0,N/A,,Mostly Cloudy,10,2013-12-30 04:53:00
7:53 PM,72.0,57.0,59,30.01,10.0,NNE,15.0,-,N/A,,Mostly Cloudy,30,2013-12-30 05:53:00
8:53 PM,72.0,57.9,61,30.01,10.0,NNE,18.4,-,N/A,,Mostly Cloudy,20,2013-12-30 06:53:00
9:53 PM,69.1,55.9,63,30.04,10.0,North,11.5,-,N/A,,Scattered Clouds,350,2013-12-30 07:53:00
10:53 PM,70.0,55.9,61,30.04,10.0,North,10.4,-,N/A,,Mostly Cloudy,350,2013-12-30 08:53:00
11:53 PM,68.0,55.9,65,30.04,10.0,North,9.2,-,N/A,,Mostly Cloudy,350,2013-12-30 09:53:00